Flag for U.S.A. Weather past 2 weeks in Philadelphia, Pennsylvania, U.S.A.

46 °F

Mostly cloudy.

Feels Like: 41 °F
Forecast: 34 / 47 °F
Wind: 12 mph from Northeast

Location: Philadelphia International Airport

Current Time: Nov 30, 2015 at 3:57:49 PM

Latest Report: Nov 30, 2015 at 2:54 PM

Visibility: 10 mi

Pressure: 30.34 "Hg

Humidity: 63%

Dew point: 34 °F

Location of PhiladelphiaLocation

Historic Weather in Philadelphia — Graph


Philadelphia temperature yesterday

Maximum temperature yesterday: 50 °F (at 12:54 AM)
Minimum temperature yesterday: 41 °F (at 11:54 PM)
Average temperature yesterday: 46 °F

Past Weeks' High & Low Weather Summary

High69 °F (Nov 16, 12:54 PM)93% (Nov 27, 7:01 AM)30.81 "Hg (Nov 27, 7:01 AM)
Low33 °F (Nov 25, 4:54 AM)20% (Nov 20, 2:54 PM)29.88 "Hg (Nov 22, 12:54 AM)
Average50 °F59%30.31 "Hg
* Reported Nov 15 1:54 PM — Nov 30 1:54 PM, Philadelphia, Weather by CustomWeather, © 2015

Note: Actual official high and low records may vary slightly from our data, if they occured in-between our weather recording intervals... More about our weather records


Philadelphia weather history for previous 24 hours

Time TempWeatherWind HumidityBarometerVisibility
1:54 PM
Mon, Nov 30
45 °FMostly cloudy.14 mph63%30.35 "Hg10 mi
12:54 PM45 °FMostly cloudy.12 mph60%30.37 "Hg10 mi
11:54 AM44 °FPartly sunny.12 mph60%30.39 "Hg10 mi
10:54 AM44 °FPartly sunny.13 mph58%30.41 "Hg10 mi
10:01 AM41 °FBroken clouds.10 mph60%30.42 "Hg10 mi
8:54 AM39 °FPartly sunny.10 mph60%30.42 "Hg10 mi
7:54 AM37 °FBroken clouds.12 mph60%30.41 "Hg10 mi
6:54 AM37 °FPartly cloudy.13 mph60%30.40 "Hg10 mi
5:54 AM37 °FMostly cloudy.14 mph60%30.40 "Hg10 mi
4:54 AM37 °FHigh level clouds.13 mph60%30.38 "Hg10 mi
3:54 AM37 °FHigh level clouds.10 mph57%30.37 "Hg10 mi
2:54 AM38 °FHigh level clouds.15 mph55%30.39 "Hg10 mi
1:54 AM38 °FMostly cloudy.16 mph55%30.38 "Hg10 mi
12:54 AM39 °FMostly cloudy.20 mph53%30.37 "Hg10 mi
11:54 PM
Sun, Nov 29
41 °FMostly cloudy.15 mph49%30.37 "Hg10 mi
10:54 PM42 °FPassing clouds.15 mph49%30.34 "Hg10 mi
9:54 PM43 °FPassing clouds.13 mph49%30.32 "Hg10 mi
8:54 PM44 °FPassing clouds.12 mph47%30.31 "Hg10 mi
7:54 PM45 °FPassing clouds.5 mph49%30.29 "Hg10 mi
6:54 PM45 °FPartly cloudy.6 mph49%30.27 "Hg10 mi
5:54 PM47 °FPartly cloudy.5 mph46%30.24 "Hg10 mi
4:54 PM46 °FPartly cloudy.6 mph54%30.24 "Hg10 mi
3:54 PM47 °FBroken clouds.6 mph54%30.23 "Hg10 mi
Weather by CustomWeather, © 2015

See weather overviewHow to use our weather pages